owner,sensor,date,latitude,longitude,vertical_datum,sea_water_temperature,qcFlag
Chevron,ioos:station:wmo:42402:2,2022-08-01T00:05:00Z,26.9329,-90.5201,27.9,30.1,11111222
Chevron,ioos:station:wmo:42402:2,2022-08-01T00:25:00Z,26.9329,-90.5201,27.9,30.1,11111222
Chevron,ioos:station:wmo:42402:2,2022-08-01T00:45:00Z,26.9329,-90.5201,27.9,30.1,11111222
Chevron,ioos:station:wmo:42402:2,2022-08-01T01:05:00Z,26.9329,-90.5201,27.9,30.2,11111222
Chevron,ioos:station:wmo:42402:2,2022-08-01T01:24:00Z,26.9329,-90.5201,27.9,30.2,11111222
Chevron,ioos:station:wmo:42402:2,2022-08-01T01:44:00Z,26.9329,-90.5201,27.9,30.1,11111222
Chevron,ioos:station:wmo:42402:2,2022-08-01T02:05:00Z,26.9329,-90.5201,27.9,30.1,11111222
Chevron,ioos:station:wmo:42402:2,2022-08-01T02:25:00Z,26.9329,-90.5201,27.9,30.1,11111222
Chevron,ioos:station:wmo:42402:2,2022-08-01T02:44:00Z,26.9329,-90.5201,27.9,30.2,11111222
Chevron,ioos:station:wmo:42402:2,2022-08-01T03:04:00Z,26.9329,-90.5201,27.9,30.2,11111222
Chevron,ioos:station:wmo:42402:2,2022-08-01T03:22:00Z,26.9329,-90.5201,27.9,30.2,11111222
Chevron,ioos:station:wmo:42402:2,2022-08-01T03:42:00Z,26.9329,-90.5201,27.9,30.2,11111222
Chevron,ioos:station:wmo:42402:2,2022-08-01T04:02:00Z,26.9329,-90.5201,27.9,30.2,11111222
Chevron,ioos:station:wmo:42402:2,2022-08-01T04:21:00Z,26.9329,-90.5201,27.9,30.1,11111222
Chevron,ioos:station:wmo:42402:2,2022-08-01T04:42:00Z,26.9329,-90.5201,27.9,30.1,11111222
Chevron,ioos:station:wmo:42402:2,2022-08-01T05:02:00Z,26.9329,-90.5201,27.9,29.9,11111222
Chevron,ioos:station:wmo:42402:2,2022-08-01T05:21:00Z,26.9329,-90.5201,27.9,29.9,11111222
Chevron,ioos:station:wmo:42402:2,2022-08-01T05:41:00Z,26.9329,-90.5201,27.9,29.9,11111222
Chevron,ioos:station:wmo:42402:2,2022-08-01T06:02:00Z,26.9329,-90.5201,27.9,30.0,11111222
Chevron,ioos:station:wmo:42402:2,2022-08-01T06:21:00Z,26.9329,-90.5201,27.9,29.9,11111222
Chevron,ioos:station:wmo:42402:2,2022-08-01T06:42:00Z,26.9329,-90.5201,27.9,29.8,11111222
Chevron,ioos:station:wmo:42402:2,2022-08-01T07:02:00Z,26.9329,-90.5201,27.9,29.7,11111222
Chevron,ioos:station:wmo:42402:2,2022-08-01T07:21:00Z,26.9329,-90.5201,27.9,29.6,11111222
Chevron,ioos:station:wmo:42402:2,2022-08-01T07:41:00Z,26.9329,-90.5201,27.9,29.6,11111222
Chevron,ioos:station:wmo:42402:2,2022-08-01T08:02:00Z,26.9329,-90.5201,27.9,29.6,11111222
Chevron,ioos:station:wmo:42402:2,2022-08-01T08:21:00Z,26.9329,-90.5201,27.9,29.6,11111222
Chevron,ioos:station:wmo:42402:2,2022-08-01T08:42:00Z,26.9329,-90.5201,27.9,29.7,11111222
Chevron,ioos:station:wmo:42402:2,2022-08-01T09:02:00Z,26.9329,-90.5201,27.9,29.7,11111222
Chevron,ioos:station:wmo:42402:2,2022-08-01T09:21:00Z,26.9329,-90.5201,27.9,29.8,11111222
Chevron,ioos:station:wmo:42402:2,2022-08-01T09:41:00Z,26.9329,-90.5201,27.9,29.7,11111222
Chevron,ioos:station:wmo:42402:2,2022-08-01T10:02:00Z,26.9329,-90.5201,27.9,29.7,11111222
Chevron,ioos:station:wmo:42402:2,2022-08-01T10:21:00Z,26.9329,-90.5201,27.9,29.7,11111222
Chevron,ioos:station:wmo:42402:2,2022-08-01T10:42:00Z,26.9329,-90.5201,27.9,29.7,11111222
Chevron,ioos:station:wmo:42402:2,2022-08-01T11:02:00Z,26.9329,-90.5201,27.9,29.6,11111222
Chevron,ioos:station:wmo:42402:2,2022-08-01T11:21:00Z,26.9329,-90.5201,27.9,29.6,11111222
Chevron,ioos:station:wmo:42402:2,2022-08-01T11:41:00Z,26.9329,-90.5201,27.9,29.7,11111222
Chevron,ioos:station:wmo:42402:2,2022-08-01T12:01:00Z,26.9329,-90.5201,27.9,29.7,11111222
Chevron,ioos:station:wmo:42402:2,2022-08-01T12:22:00Z,26.9329,-90.5201,27.9,29.7,11111222
Chevron,ioos:station:wmo:42402:2,2022-08-01T12:42:00Z,26.9329,-90.5201,27.9,29.6,11111222
Chevron,ioos:station:wmo:42402:2,2022-08-01T13:02:00Z,26.9329,-90.5201,27.9,29.7,11111222
Chevron,ioos:station:wmo:42402:2,2022-08-01T13:21:00Z,26.9329,-90.5201,27.9,29.7,11111222
Chevron,ioos:station:wmo:42402:2,2022-08-01T13:42:00Z,26.9329,-90.5201,27.9,29.7,11111222
Chevron,ioos:station:wmo:42402:2,2022-08-01T14:02:00Z,26.9329,-90.5201,27.9,29.7,11111222
Chevron,ioos:station:wmo:42402:2,2022-08-01T14:22:00Z,26.9329,-90.5201,27.9,29.7,11111222
Chevron,ioos:station:wmo:42402:2,2022-08-01T14:42:00Z,26.9329,-90.5201,27.9,29.7,11111222
Chevron,ioos:station:wmo:42402:2,2022-08-01T15:01:00Z,26.9329,-90.5201,27.9,29.9,11111222
Chevron,ioos:station:wmo:42402:2,2022-08-01T15:20:00Z,26.9329,-90.5201,27.9,30.1,11111222
Chevron,ioos:station:wmo:42402:2,2022-08-01T15:40:00Z,26.9329,-90.5201,27.9,30.1,11111222
Chevron,ioos:station:wmo:42402:2,2022-08-01T16:00:00Z,26.9329,-90.5201,27.9,30.1,11111222
Chevron,ioos:station:wmo:42402:2,2022-08-01T16:21:00Z,26.9329,-90.5201,27.9,30.1,11111222
Chevron,ioos:station:wmo:42402:2,2022-08-01T16:41:00Z,26.9329,-90.5201,27.9,30.1,11111222
Chevron,ioos:station:wmo:42402:2,2022-08-01T17:00:00Z,26.9329,-90.5201,27.9,30.1,11111222
Chevron,ioos:station:wmo:42402:2,2022-08-01T17:19:00Z,26.9329,-90.5201,27.9,30.1,11111222
Chevron,ioos:station:wmo:42402:2,2022-08-01T17:39:00Z,26.9329,-90.5201,27.9,30.1,11111222
Chevron,ioos:station:wmo:42402:2,2022-08-01T18:00:00Z,26.9329,-90.5201,27.9,30.1,11111222
Chevron,ioos:station:wmo:42402:2,2022-08-01T18:20:00Z,26.9329,-90.5201,27.9,30.1,11111222
Chevron,ioos:station:wmo:42402:2,2022-08-01T18:40:00Z,26.9329,-90.5201,27.9,30.1,11111222
Chevron,ioos:station:wmo:42402:2,2022-08-01T19:00:00Z,26.9329,-90.5201,27.9,30.1,11111222
Chevron,ioos:station:wmo:42402:2,2022-08-01T19:19:00Z,26.9329,-90.5201,27.9,30.1,11111222
Chevron,ioos:station:wmo:42402:2,2022-08-01T19:39:00Z,26.9329,-90.5201,27.9,30.1,11111222
Chevron,ioos:station:wmo:42402:2,2022-08-01T19:59:00Z,26.9329,-90.5201,27.9,30.1,11111222
Chevron,ioos:station:wmo:42402:2,2022-08-01T20:20:00Z,26.9329,-90.5201,27.9,30.1,11111222
Chevron,ioos:station:wmo:42402:2,2022-08-01T20:40:00Z,26.9329,-90.5201,27.9,30.1,11111222
Chevron,ioos:station:wmo:42402:2,2022-08-01T21:00:00Z,26.9329,-90.5201,27.9,30.1,11111222
Chevron,ioos:station:wmo:42402:2,2022-08-01T21:19:00Z,26.9329,-90.5201,27.9,30.1,11111222
Chevron,ioos:station:wmo:42402:2,2022-08-01T21:38:00Z,26.9329,-90.5201,27.9,30.1,11111222
Chevron,ioos:station:wmo:42402:2,2022-08-01T21:59:00Z,26.9329,-90.5201,27.9,30.1,11111222
Chevron,ioos:station:wmo:42402:2,2022-08-01T22:19:00Z,26.9329,-90.5201,27.9,30.1,11111222
Chevron,ioos:station:wmo:42402:2,2022-08-01T22:39:00Z,26.9329,-90.5201,27.9,30.1,11111222
Chevron,ioos:station:wmo:42402:2,2022-08-01T22:58:00Z,26.9329,-90.5201,27.9,30.1,11111222
Chevron,ioos:station:wmo:42402:2,2022-08-01T23:17:00Z,26.9329,-90.5201,27.9,30.1,11111222
Chevron,ioos:station:wmo:42402:2,2022-08-01T23:37:00Z,26.9329,-90.5201,27.9,30.1,11111222
Chevron,ioos:station:wmo:42402:2,2022-08-01T23:58:00Z,26.9329,-90.5201,27.9,30.1,11111222
Chevron,ioos:station:wmo:42402:2,2022-08-02T00:18:00Z,26.9329,-90.5201,27.9,30.1,11111222
Chevron,ioos:station:wmo:42402:2,2022-08-02T00:38:00Z,26.9329,-90.5201,27.9,30.1,11111222
Chevron,ioos:station:wmo:42402:2,2022-08-02T00:58:00Z,26.9329,-90.5201,27.9,30.1,11111222
Chevron,ioos:station:wmo:42402:2,2022-08-02T01:17:00Z,26.9329,-90.5201,27.9,30.1,11111222
Chevron,ioos:station:wmo:42402:2,2022-08-02T01:37:00Z,26.9329,-90.5201,27.9,30.1,11111222
Chevron,ioos:station:wmo:42402:2,2022-08-02T01:56:00Z,26.9329,-90.5201,27.9,30.1,11111222
Chevron,ioos:station:wmo:42402:2,2022-08-02T02:16:00Z,26.9329,-90.5201,27.9,30.1,11111222
Chevron,ioos:station:wmo:42402:2,2022-08-02T02:37:00Z,26.9329,-90.5201,27.9,30.1,11111222
Chevron,ioos:station:wmo:42402:2,2022-08-02T02:57:00Z,26.9329,-90.5201,27.9,30.1,11111222
Chevron,ioos:station:wmo:42402:2,2022-08-02T03:16:00Z,26.9329,-90.5201,27.9,30.1,11111222
Chevron,ioos:station:wmo:42402:2,2022-08-02T03:35:00Z,26.9329,-90.5201,27.9,30.1,11111222
Chevron,ioos:station:wmo:42402:2,2022-08-02T03:55:00Z,26.9329,-90.5201,27.9,30.1,11111222
Chevron,ioos:station:wmo:42402:2,2022-08-02T04:14:00Z,26.9329,-90.5201,27.9,30.1,11111222
Chevron,ioos:station:wmo:42402:2,2022-08-02T04:34:00Z,26.9329,-90.5201,27.9,30.1,11111222
Chevron,ioos:station:wmo:42402:2,2022-08-02T04:54:00Z,26.9329,-90.5201,27.9,30.1,11111222
Chevron,ioos:station:wmo:42402:2,2022-08-02T05:13:00Z,26.9329,-90.5201,27.9,30.1,11111222
Chevron,ioos:station:wmo:42402:2,2022-08-02T05:33:00Z,26.9329,-90.5201,27.9,30.1,11111222
Chevron,ioos:station:wmo:42402:2,2022-08-02T05:53:00Z,26.9329,-90.5201,27.9,30.1,11111222
Chevron,ioos:station:wmo:42402:2,2022-08-02T06:13:00Z,26.9329,-90.5201,27.9,30.1,11111222
Chevron,ioos:station:wmo:42402:2,2022-08-02T06:34:00Z,26.9329,-90.5201,27.9,30.1,11111222
Chevron,ioos:station:wmo:42402:2,2022-08-02T06:53:00Z,26.9329,-90.5201,27.9,30.0,11111222
Chevron,ioos:station:wmo:42402:2,2022-08-02T07:12:00Z,26.9329,-90.5201,27.9,30.0,11111222
Chevron,ioos:station:wmo:42402:2,2022-08-02T07:31:00Z,26.9329,-90.5201,27.9,30.0,11111222
Chevron,ioos:station:wmo:42402:2,2022-08-02T07:51:00Z,26.9329,-90.5201,27.9,30.0,11111222
Chevron,ioos:station:wmo:42402:2,2022-08-02T08:11:00Z,26.9329,-90.5201,27.9,30.0,11111222
Chevron,ioos:station:wmo:42402:2,2022-08-02T08:31:00Z,26.9329,-90.5201,27.9,30.0,11111222
Chevron,ioos:station:wmo:42402:2,2022-08-02T08:51:00Z,26.9329,-90.5201,27.9,30.0,11111222
Chevron,ioos:station:wmo:42402:2,2022-08-02T09:11:00Z,26.9329,-90.5201,27.9,30.0,11111222
Chevron,ioos:station:wmo:42402:2,2022-08-02T09:30:00Z,26.9329,-90.5201,27.9,30.0,11111222
Chevron,ioos:station:wmo:42402:2,2022-08-02T09:50:00Z,26.9329,-90.5201,27.9,30.0,11111222
Chevron,ioos:station:wmo:42402:2,2022-08-02T10:10:00Z,26.9329,-90.5201,27.9,30.0,11111222
Chevron,ioos:station:wmo:42402:2,2022-08-02T10:31:00Z,26.9329,-90.5201,27.9,30.0,11111222
Chevron,ioos:station:wmo:42402:2,2022-08-02T10:51:00Z,26.9329,-90.5201,27.9,29.9,11111222
Chevron,ioos:station:wmo:42402:2,2022-08-02T11:11:00Z,26.9329,-90.5201,27.9,29.9,11111222
Chevron,ioos:station:wmo:42402:2,2022-08-02T11:31:00Z,26.9329,-90.5201,27.9,29.9,11111222
Chevron,ioos:station:wmo:42402:2,2022-08-02T11:51:00Z,26.9329,-90.5201,27.9,29.9,11111222
Chevron,ioos:station:wmo:42402:2,2022-08-02T12:11:00Z,26.9329,-90.5201,27.9,29.9,11111222
Chevron,ioos:station:wmo:42402:2,2022-08-02T12:31:00Z,26.9329,-90.5201,27.9,29.9,11111222
Chevron,ioos:station:wmo:42402:2,2022-08-02T12:51:00Z,26.9329,-90.5201,27.9,30.0,11111222
Chevron,ioos:station:wmo:42402:2,2022-08-02T13:11:00Z,26.9329,-90.5201,27.9,29.9,11111222
Chevron,ioos:station:wmo:42402:2,2022-08-02T13:31:00Z,26.9329,-90.5201,27.9,29.9,11111222
Chevron,ioos:station:wmo:42402:2,2022-08-02T13:51:00Z,26.9329,-90.5201,27.9,29.9,11111222
Chevron,ioos:station:wmo:42402:2,2022-08-02T14:11:00Z,26.9329,-90.5201,27.9,30.0,11111222
Chevron,ioos:station:wmo:42402:2,2022-08-02T14:31:00Z,26.9329,-90.5201,27.9,30.0,11111222
Chevron,ioos:station:wmo:42402:2,2022-08-02T14:51:00Z,26.9329,-90.5201,27.9,30.0,11111222
Chevron,ioos:station:wmo:42402:2,2022-08-02T15:11:00Z,26.9329,-90.5201,27.9,29.9,11111222
Chevron,ioos:station:wmo:42402:2,2022-08-02T15:30:00Z,26.9329,-90.5201,27.9,29.7,11111222
Chevron,ioos:station:wmo:42402:2,2022-08-02T15:51:00Z,26.9329,-90.5201,27.9,29.6,11111222
Chevron,ioos:station:wmo:42402:2,2022-08-02T16:10:00Z,26.9329,-90.5201,27.9,29.7,11111222
Chevron,ioos:station:wmo:42402:2,2022-08-02T16:30:00Z,26.9329,-90.5201,27.9,29.8,11111222
Chevron,ioos:station:wmo:42402:2,2022-08-02T16:50:00Z,26.9329,-90.5201,27.9,29.9,11111222
Chevron,ioos:station:wmo:42402:2,2022-08-02T17:10:00Z,26.9329,-90.5201,27.9,29.9,11111222
Chevron,ioos:station:wmo:42402:2,2022-08-02T17:30:00Z,26.9329,-90.5201,27.9,30.0,11111222
Chevron,ioos:station:wmo:42402:2,2022-08-02T17:50:00Z,26.9329,-90.5201,27.9,30.0,11111222
Chevron,ioos:station:wmo:42402:2,2022-08-02T18:10:00Z,26.9329,-90.5201,27.9,30.0,11111222
Chevron,ioos:station:wmo:42402:2,2022-08-02T18:29:00Z,26.9329,-90.5201,27.9,30.0,11111222
Chevron,ioos:station:wmo:42402:2,2022-08-02T18:49:00Z,26.9329,-90.5201,27.9,30.1,11111222
Chevron,ioos:station:wmo:42402:2,2022-08-02T19:09:00Z,26.9329,-90.5201,27.9,30.1,11111222
Chevron,ioos:station:wmo:42402:2,2022-08-02T19:29:00Z,26.9329,-90.5201,27.9,30.1,11111222
Chevron,ioos:station:wmo:42402:2,2022-08-02T19:49:00Z,26.9329,-90.5201,27.9,30.1,11111222
Chevron,ioos:station:wmo:42402:2,2022-08-02T20:09:00Z,26.9329,-90.5201,27.9,30.2,11111222
Chevron,ioos:station:wmo:42402:2,2022-08-02T20:29:00Z,26.9329,-90.5201,27.9,30.2,11111222
Chevron,ioos:station:wmo:42402:2,2022-08-02T20:49:00Z,26.9329,-90.5201,27.9,30.1,11111222
Chevron,ioos:station:wmo:42402:2,2022-08-02T21:09:00Z,26.9329,-90.5201,27.9,30.2,11111222
Chevron,ioos:station:wmo:42402:2,2022-08-02T21:29:00Z,26.9329,-90.5201,27.9,30.2,11111222
Chevron,ioos:station:wmo:42402:2,2022-08-02T21:49:00Z,26.9329,-90.5201,27.9,30.1,11111222
Chevron,ioos:station:wmo:42402:2,2022-08-02T22:09:00Z,26.9329,-90.5201,27.9,30.1,11111222
Chevron,ioos:station:wmo:42402:2,2022-08-02T22:28:00Z,26.9329,-90.5201,27.9,30.2,11111222
Chevron,ioos:station:wmo:42402:2,2022-08-02T22:48:00Z,26.9329,-90.5201,27.9,30.2,11111222
Chevron,ioos:station:wmo:42402:2,2022-08-02T23:09:00Z,26.9329,-90.5201,27.9,30.1,11111222
Chevron,ioos:station:wmo:42402:2,2022-08-02T23:29:00Z,26.9329,-90.5201,27.9,30.1,11111222
Chevron,ioos:station:wmo:42402:2,2022-08-02T23:49:00Z,26.9329,-90.5201,27.9,30.1,11111222
Chevron,ioos:station:wmo:42402:2,2022-08-03T00:09:00Z,26.9329,-90.5201,27.9,30.1,11111222
Chevron,ioos:station:wmo:42402:2,2022-08-03T00:29:00Z,26.9329,-90.5201,27.9,30.1,11111222
Chevron,ioos:station:wmo:42402:2,2022-08-03T00:49:00Z,26.9329,-90.5201,27.9,30.0,11111222
Chevron,ioos:station:wmo:42402:2,2022-08-03T01:09:00Z,26.9329,-90.5201,27.9,30.0,11111222
Chevron,ioos:station:wmo:42402:2,2022-08-03T01:28:00Z,26.9329,-90.5201,27.9,30.0,11111222
Chevron,ioos:station:wmo:42402:2,2022-08-03T01:48:00Z,26.9329,-90.5201,27.9,30.0,11111222
Chevron,ioos:station:wmo:42402:2,2022-08-03T02:09:00Z,26.9329,-90.5201,27.9,30.0,11111222
Chevron,ioos:station:wmo:42402:2,2022-08-03T02:28:00Z,26.9329,-90.5201,27.9,29.9,11111222
Chevron,ioos:station:wmo:42402:2,2022-08-03T02:49:00Z,26.9329,-90.5201,27.9,29.9,11111222
Chevron,ioos:station:wmo:42402:2,2022-08-03T03:09:00Z,26.9329,-90.5201,27.9,29.9,11111222
Chevron,ioos:station:wmo:42402:2,2022-08-03T03:28:00Z,26.9329,-90.5201,27.9,30.0,11111222
Chevron,ioos:station:wmo:42402:2,2022-08-03T03:49:00Z,26.9329,-90.5201,27.9,30.0,11111222
Chevron,ioos:station:wmo:42402:2,2022-08-03T04:09:00Z,26.9329,-90.5201,27.9,30.0,11111222
Chevron,ioos:station:wmo:42402:2,2022-08-03T04:28:00Z,26.9329,-90.5201,27.9,30.0,11111222
Chevron,ioos:station:wmo:42402:2,2022-08-03T04:49:00Z,26.9329,-90.5201,27.9,29.9,11111222
Chevron,ioos:station:wmo:42402:2,2022-08-03T05:09:00Z,26.9329,-90.5201,27.9,30.0,11111222
Chevron,ioos:station:wmo:42402:2,2022-08-03T05:28:00Z,26.9329,-90.5201,27.9,30.0,11111222
Chevron,ioos:station:wmo:42402:2,2022-08-03T05:48:00Z,26.9329,-90.5201,27.9,29.9,11111222
Chevron,ioos:station:wmo:42402:2,2022-08-03T06:09:00Z,26.9329,-90.5201,27.9,30.0,11111222
Chevron,ioos:station:wmo:42402:2,2022-08-03T06:28:00Z,26.9329,-90.5201,27.9,30.0,11111222
Chevron,ioos:station:wmo:42402:2,2022-08-03T06:49:00Z,26.9329,-90.5201,27.9,30.2,11111222
Chevron,ioos:station:wmo:42402:2,2022-08-03T07:09:00Z,26.9329,-90.5201,27.9,30.2,11111222
Chevron,ioos:station:wmo:42402:2,2022-08-03T07:28:00Z,26.9329,-90.5201,27.9,30.2,11111222
Chevron,ioos:station:wmo:42402:2,2022-08-03T07:48:00Z,26.9329,-90.5201,27.9,30.2,11111222
Chevron,ioos:station:wmo:42402:2,2022-08-03T08:09:00Z,26.9329,-90.5201,27.9,30.1,11111222
Chevron,ioos:station:wmo:42402:2,2022-08-03T08:29:00Z,26.9329,-90.5201,27.9,29.9,11111222
Chevron,ioos:station:wmo:42402:2,2022-08-03T08:49:00Z,26.9329,-90.5201,27.9,30.0,11111222
Chevron,ioos:station:wmo:42402:2,2022-08-03T09:09:00Z,26.9329,-90.5201,27.9,30.0,11111222
Chevron,ioos:station:wmo:42402:2,2022-08-03T09:28:00Z,26.9329,-90.5201,27.9,30.1,11111222
Chevron,ioos:station:wmo:42402:2,2022-08-03T09:48:00Z,26.9329,-90.5201,27.9,30.0,11111222
Chevron,ioos:station:wmo:42402:2,2022-08-03T10:08:00Z,26.9329,-90.5201,27.9,30.2,11111222
Chevron,ioos:station:wmo:42402:2,2022-08-03T10:29:00Z,26.9329,-90.5201,27.9,30.0,11111222
Chevron,ioos:station:wmo:42402:2,2022-08-03T10:49:00Z,26.9329,-90.5201,27.9,30.1,11111222
Chevron,ioos:station:wmo:42402:2,2022-08-03T11:09:00Z,26.9329,-90.5201,27.9,30.1,11111222
Chevron,ioos:station:wmo:42402:2,2022-08-03T11:28:00Z,26.9329,-90.5201,27.9,30.1,11111222
Chevron,ioos:station:wmo:42402:2,2022-08-03T11:48:00Z,26.9329,-90.5201,27.9,30.2,11111222
Chevron,ioos:station:wmo:42402:2,2022-08-03T12:09:00Z,26.9329,-90.5201,27.9,30.3,11111222
Chevron,ioos:station:wmo:42402:2,2022-08-03T12:28:00Z,26.9329,-90.5201,27.9,30.3,11111222
Chevron,ioos:station:wmo:42402:2,2022-08-03T12:49:00Z,26.9329,-90.5201,27.9,30.2,11111222
Chevron,ioos:station:wmo:42402:2,2022-08-03T13:09:00Z,26.9329,-90.5201,27.9,30.2,11111222
Chevron,ioos:station:wmo:42402:2,2022-08-03T13:28:00Z,26.9329,-90.5201,27.9,30.2,11111222
Chevron,ioos:station:wmo:42402:2,2022-08-03T13:49:00Z,26.9329,-90.5201,27.9,30.2,11111222
Chevron,ioos:station:wmo:42402:2,2022-08-03T14:09:00Z,26.9329,-90.5201,27.9,30.3,11111222
Chevron,ioos:station:wmo:42402:2,2022-08-03T14:28:00Z,26.9329,-90.5201,27.9,30.1,11111222
Chevron,ioos:station:wmo:42402:2,2022-08-03T14:49:00Z,26.9329,-90.5201,27.9,30.1,11111222
Chevron,ioos:station:wmo:42402:2,2022-08-03T15:09:00Z,26.9329,-90.5201,27.9,30.1,11111222
Chevron,ioos:station:wmo:42402:2,2022-08-03T15:28:00Z,26.9329,-90.5201,27.9,29.9,11111222
Chevron,ioos:station:wmo:42402:2,2022-08-03T15:48:00Z,26.9329,-90.5201,27.9,29.8,11111222
Chevron,ioos:station:wmo:42402:2,2022-08-03T16:08:00Z,26.9329,-90.5201,27.9,29.7,11111222
Chevron,ioos:station:wmo:42402:2,2022-08-03T16:29:00Z,26.9329,-90.5201,27.9,29.7,11111222
Chevron,ioos:station:wmo:42402:2,2022-08-03T16:49:00Z,26.9329,-90.5201,27.9,29.7,11111222
Chevron,ioos:station:wmo:42402:2,2022-08-03T17:09:00Z,26.9329,-90.5201,27.9,29.7,11111222
Chevron,ioos:station:wmo:42402:2,2022-08-03T17:29:00Z,26.9329,-90.5201,27.9,29.7,11111222
Chevron,ioos:station:wmo:42402:2,2022-08-03T17:49:00Z,26.9329,-90.5201,27.9,29.7,11111222
Chevron,ioos:station:wmo:42402:2,2022-08-03T18:09:00Z,26.9329,-90.5201,27.9,29.7,11111222
Chevron,ioos:station:wmo:42402:2,2022-08-03T18:28:00Z,26.9329,-90.5201,27.9,29.7,11111222
Chevron,ioos:station:wmo:42402:2,2022-08-03T18:49:00Z,26.9329,-90.5201,27.9,29.7,11111222
Chevron,ioos:station:wmo:42402:2,2022-08-03T19:09:00Z,26.9329,-90.5201,27.9,29.7,11111222
Chevron,ioos:station:wmo:42402:2,2022-08-03T19:28:00Z,26.9329,-90.5201,27.9,29.7,11111222
Chevron,ioos:station:wmo:42402:2,2022-08-03T19:48:00Z,26.9329,-90.5201,27.9,29.7,11111222
Chevron,ioos:station:wmo:42402:2,2022-08-03T20:09:00Z,26.9329,-90.5201,27.9,29.7,11111222
Chevron,ioos:station:wmo:42402:2,2022-08-03T20:28:00Z,26.9329,-90.5201,27.9,29.8,11111222
Chevron,ioos:station:wmo:42402:2,2022-08-03T20:49:00Z,26.9329,-90.5201,27.9,29.8,11111222
Chevron,ioos:station:wmo:42402:2,2022-08-03T21:09:00Z,26.9329,-90.5201,27.9,29.7,11111222
Chevron,ioos:station:wmo:42402:2,2022-08-03T21:28:00Z,26.9329,-90.5201,27.9,29.7,11111222
Chevron,ioos:station:wmo:42402:2,2022-08-03T21:49:00Z,26.9329,-90.5201,27.9,29.7,11111222
Chevron,ioos:station:wmo:42402:2,2022-08-03T22:08:00Z,26.9329,-90.5201,27.9,29.8,11111222
Chevron,ioos:station:wmo:42402:2,2022-08-03T22:28:00Z,26.9329,-90.5201,27.9,29.9,11111222
Chevron,ioos:station:wmo:42402:2,2022-08-03T22:48:00Z,26.9329,-90.5201,27.9,30.0,11111222
Chevron,ioos:station:wmo:42402:2,2022-08-03T23:08:00Z,26.9329,-90.5201,27.9,30.1,11111222
Chevron,ioos:station:wmo:42402:2,2022-08-03T23:27:00Z,26.9329,-90.5201,27.9,30.1,11111222
Chevron,ioos:station:wmo:42402:2,2022-08-03T23:47:00Z,26.9329,-90.5201,27.9,30.1,11111222
Chevron,ioos:station:wmo:42402:2,2022-08-04T00:08:00Z,26.9329,-90.5201,27.9,30.1,11111222
Chevron,ioos:station:wmo:42402:2,2022-08-04T00:28:00Z,26.9329,-90.5201,27.9,30.2,11111222
Chevron,ioos:station:wmo:42402:2,2022-08-04T00:48:00Z,26.9329,-90.5201,27.9,30.1,11111222
Chevron,ioos:station:wmo:42402:2,2022-08-04T01:08:00Z,26.9329,-90.5201,27.9,30.2,11111222
Chevron,ioos:station:wmo:42402:2,2022-08-04T01:27:00Z,26.9329,-90.5201,27.9,30.2,11111222
Chevron,ioos:station:wmo:42402:2,2022-08-04T01:47:00Z,26.9329,-90.5201,27.9,30.2,11111222
Chevron,ioos:station:wmo:42402:2,2022-08-04T02:07:00Z,26.9329,-90.5201,27.9,30.3,11111222
Chevron,ioos:station:wmo:42402:2,2022-08-04T02:28:00Z,26.9329,-90.5201,27.9,30.3,11111222
Chevron,ioos:station:wmo:42402:2,2022-08-04T02:48:00Z,26.9329,-90.5201,27.9,30.3,11111222
Chevron,ioos:station:wmo:42402:2,2022-08-04T03:08:00Z,26.9329,-90.5201,27.9,30.4,11111222
Chevron,ioos:station:wmo:42402:2,2022-08-04T03:28:00Z,26.9329,-90.5201,27.9,30.3,11111222
Chevron,ioos:station:wmo:42402:2,2022-08-04T03:48:00Z,26.9329,-90.5201,27.9,30.2,11111222
Chevron,ioos:station:wmo:42402:2,2022-08-04T04:08:00Z,26.9329,-90.5201,27.9,30.1,11111222
Chevron,ioos:station:wmo:42402:2,2022-08-04T04:28:00Z,26.9329,-90.5201,27.9,30.1,11111222
Chevron,ioos:station:wmo:42402:2,2022-08-04T04:48:00Z,26.9329,-90.5201,27.9,30.1,11111222
Chevron,ioos:station:wmo:42402:2,2022-08-04T05:08:00Z,26.9329,-90.5201,27.9,29.9,11111222
Chevron,ioos:station:wmo:42402:2,2022-08-04T05:27:00Z,26.9329,-90.5201,27.9,30.0,11111222
Chevron,ioos:station:wmo:42402:2,2022-08-04T05:48:00Z,26.9329,-90.5201,27.9,30.1,11111222
Chevron,ioos:station:wmo:42402:2,2022-08-04T06:08:00Z,26.9329,-90.5201,27.9,30.1,11111222
Chevron,ioos:station:wmo:42402:2,2022-08-04T06:27:00Z,26.9329,-90.5201,27.9,29.9,11111222
Chevron,ioos:station:wmo:42402:2,2022-08-04T06:48:00Z,26.9329,-90.5201,27.9,29.9,11111222
Chevron,ioos:station:wmo:42402:2,2022-08-04T07:08:00Z,26.9329,-90.5201,27.9,29.9,11111222
Chevron,ioos:station:wmo:42402:2,2022-08-04T07:27:00Z,26.9329,-90.5201,27.9,29.8,11111222
Chevron,ioos:station:wmo:42402:2,2022-08-04T07:48:00Z,26.9329,-90.5201,27.9,29.9,11111222
Chevron,ioos:station:wmo:42402:2,2022-08-04T08:08:00Z,26.9329,-90.5201,27.9,29.8,11111222
Chevron,ioos:station:wmo:42402:2,2022-08-04T08:27:00Z,26.9329,-90.5201,27.9,29.7,11111222
Chevron,ioos:station:wmo:42402:2,2022-08-04T08:48:00Z,26.9329,-90.5201,27.9,29.7,11111222
Chevron,ioos:station:wmo:42402:2,2022-08-04T09:08:00Z,26.9329,-90.5201,27.9,29.7,11111222
Chevron,ioos:station:wmo:42402:2,2022-08-04T09:27:00Z,26.9329,-90.5201,27.9,29.7,11111222
Chevron,ioos:station:wmo:42402:2,2022-08-04T09:48:00Z,26.9329,-90.5201,27.9,29.7,11111222
Chevron,ioos:station:wmo:42402:2,2022-08-04T10:08:00Z,26.9329,-90.5201,27.9,29.7,11111222
Chevron,ioos:station:wmo:42402:2,2022-08-04T10:27:00Z,26.9329,-90.5201,27.9,29.7,11111222
Chevron,ioos:station:wmo:42402:2,2022-08-04T10:47:00Z,26.9329,-90.5201,27.9,29.8,11111222
Chevron,ioos:station:wmo:42402:2,2022-08-04T11:08:00Z,26.9329,-90.5201,27.9,29.8,11111222
Chevron,ioos:station:wmo:42402:2,2022-08-04T11:27:00Z,26.9329,-90.5201,27.9,29.7,11111222
Chevron,ioos:station:wmo:42402:2,2022-08-04T11:48:00Z,26.9329,-90.5201,27.9,29.7,11111222
Chevron,ioos:station:wmo:42402:2,2022-08-04T12:08:00Z,26.9329,-90.5201,27.9,29.7,11111222
Chevron,ioos:station:wmo:42402:2,2022-08-04T12:27:00Z,26.9329,-90.5201,27.9,29.8,11111222
Chevron,ioos:station:wmo:42402:2,2022-08-04T12:47:00Z,26.9329,-90.5201,27.9,29.8,11111222
Chevron,ioos:station:wmo:42402:2,2022-08-04T13:08:00Z,26.9329,-90.5201,27.9,29.8,11111222
Chevron,ioos:station:wmo:42402:2,2022-08-04T13:27:00Z,26.9329,-90.5201,27.9,29.9,11111222
Chevron,ioos:station:wmo:42402:2,2022-08-04T13:48:00Z,26.9329,-90.5201,27.9,29.9,11111222
Chevron,ioos:station:wmo:42402:2,2022-08-04T14:08:00Z,26.9329,-90.5201,27.9,29.9,11111222
Chevron,ioos:station:wmo:42402:2,2022-08-04T14:27:00Z,26.9329,-90.5201,27.9,29.9,11111222
Chevron,ioos:station:wmo:42402:2,2022-08-04T14:47:00Z,26.9329,-90.5201,27.9,30.0,11111222